PROFILE

 METAR AND TAF INFORMATION
ADDS - METARS form results

(0445 UTC 13 July 2020)
http://aviationweather.gov/metar/data/
 
LEPA 130430Z VRB02KT CAVOK 23/15 Q1017 NOSIG
LEPA 130400Z 07006KT CAVOK 23/14 Q1016 NOSIG
TAF LEPA 122300Z 1300/1324 VRB04KT 9999 FEW030 TX32/1312Z TN20/1306Z BECMG 1303/1305 06010KT TEMPO 1311/1318 20010KT 

 AIRPORT MAP

 RUNWAY INFORMATION
Runway 06L Runway length 10728 ft Runway width 148 ft
Runway elevation 15 ft Runway displaced threshold 0 ft Runway heading 59
Runway 24R Runway length 10728 ft Runway width 148 ft
Runway elevation 8 ft Runway displaced threshold 230 ft Runway heading 239
Runway 06R Runway length 9842 ft Runway width 148 ft
Runway elevation 24 ft Runway displaced threshold 1345 ft Runway heading 59
Runway 24L Runway length 9842 ft Runway width 148 ft
Runway elevation 8 ft Runway displaced threshold 0 ft Runway heading 239

 AIRPORT FREQUENCIES
Type APP Name APP Frequency 118.95 MHZ
Type ATIS Name ATIS Frequency 119.25 MHZ
Type CLD Name CLNC DEL Frequency 121.6 MHZ
Type GND Name GND Frequency 121.7 MHZ
Type OPS Name OPS Frequency 130.25 MHZ
Type TWR Name TWR Frequency 118.3 MHZ

 AIRPORT NEAR NAVIGATION AIDS